• Em Portugal
  • Lista de países
  • Para 7 dias
  • Temperatura da água
  • Mapas de satélite
  • Mapa do tempo
  • Widgets de tempo
  • user-avatar
    Iniciar Sessão

    Previsão horária em Mostar

    Hoje, 21 Setembro, Sexta-feira

    Tempo Temperatura Precipitação Vento Pressão Humidade
    00:00 +23°C° 0.4 mm 2 m/s 755 mmHg 80%
    01:00 +23°C° 0.4 mm 2 m/s 755 mmHg 81%
    02:00 +23°C° 0.2 mm 2 m/s 755 mmHg 81%
    03:00 +23°C° 0.2 mm 2 m/s 755 mmHg 81%
    04:00 +23°C° 0.2 mm 2 m/s 755 mmHg 81%
    05:00 +23°C° 0 mm 2 m/s 755 mmHg 79%
    06:00 +24°C° 0 mm 2 m/s 755 mmHg 77%
    07:00 +24°C° 0 mm 2 m/s 755 mmHg 72%
    08:00 +26°C° 0 mm 2 m/s 755 mmHg 66%
    09:00 +28°C° 0 mm 2 m/s 755 mmHg 59%
    10:00 +29°C° 0 mm 2 m/s 755 mmHg 53%
    11:00 +30°C° 0 mm 2 m/s 755 mmHg 51%
    12:00 +30°C° 0 mm 3 m/s 755 mmHg 50%
    13:00 +30°C° 0 mm 3 m/s 755 mmHg 49%
    14:00 +30°C° 0 mm 2 m/s 754 mmHg 51%
    15:00 +29°C° 0 mm 2 m/s 754 mmHg 53%
    16:00 +29°C° 0 mm 2 m/s 754 mmHg 56%
    17:00 +27°C° 0 mm 1 m/s 754 mmHg 63%
    18:00 +26°C° 0 mm 1 m/s 754 mmHg 69%
    19:00 +24°C° 0 mm 1 m/s 754 mmHg 76%
    20:00 +23°C° 0 mm 1 m/s 755 mmHg 77%
    21:00 +23°C° 0 mm 1 m/s 755 mmHg 78%
    22:00 +23°C° 0 mm 1 m/s 755 mmHg 79%
    23:00 +22°C° 0 mm 1 m/s 755 mmHg 77%

    Amanhã, 22 Setembro, Sábado

    Tempo Temperatura Precipitação Vento Pressão Humidade
    00:00 +22°C° 0 mm 1 m/s 755 mmHg 76%
    01:00 +21°C° 0 mm 2 m/s 756 mmHg 74%
    02:00 +21°C° 0 mm 2 m/s 755 mmHg 73%
    03:00 +21°C° 0 mm 2 m/s 755 mmHg 73%
    04:00 +20°C° 0 mm 2 m/s 755 mmHg 72%
    05:00 +21°C° 0 mm 2 m/s 756 mmHg 70%
    06:00 +23°C° 0 mm 2 m/s 756 mmHg 68%
    07:00 +23°C° 0 mm 2 m/s 756 mmHg 66%
    08:00 +25°C° 0 mm 2 m/s 756 mmHg 61%
    09:00 +27°C° 0 mm 2 m/s 756 mmHg 56%
    10:00 +29°C° 0 mm 2 m/s 756 mmHg 51%
    11:00 +29°C° 0 mm 2 m/s 756 mmHg 51%
    12:00 +30°C° 0 mm 2 m/s 756 mmHg 51%
    13:00 +30°C° 0 mm 2 m/s 756 mmHg 51%
    14:00 +30°C° 0 mm 2 m/s 756 mmHg 54%
    15:00 +29°C° 0 mm 2 m/s 756 mmHg 58%
    16:00 +28°C° 0 mm 2 m/s 756 mmHg 62%
    17:00 +27°C° 0 mm 2 m/s 757 mmHg 68%
    18:00 +25°C° 0 mm 1 m/s 757 mmHg 74%
    19:00 +23°C° 0 mm 1 m/s 758 mmHg 81%
    20:00 +23°C° 0 mm 1 m/s 758 mmHg 80%
    21:00 +21°C° 0 mm 2 m/s 758 mmHg 79%
    22:00 +20°C° 0 mm 2 m/s 758 mmHg 78%
    23:00 +20°C° 0 mm 2 m/s 758 mmHg 77%

    Depois de amanhã, 23 Setembro, Domingo

    Tempo Temperatura Precipitação Vento Pressão Humidade
    00:00 +20°C° 0 mm 2 m/s 758 mmHg 76%
    01:00 +19°C° 0 mm 2 m/s 758 mmHg 75%
    02:00 +19°C° 0 mm 2 m/s 758 mmHg 75%
    03:00 +19°C° 0 mm 2 m/s 758 mmHg 76%
    04:00 +19°C° 0 mm 2 m/s 758 mmHg 77%
    05:00 +20°C° 0 mm 2 m/s 758 mmHg 75%
    06:00 +21°C° 0 mm 2 m/s 758 mmHg 74%
    07:00 +21°C° 0 mm 2 m/s 758 mmHg 73%
    08:00 +24°C° 0 mm 2 m/s 758 mmHg 66%
    09:00 +27°C° 0 mm 1 m/s 759 mmHg 58%
    10:00 +29°C° 0 mm 1 m/s 759 mmHg 51%
    11:00 +30°C° 0 mm 1 m/s 759 mmHg 50%
    12:00 +30°C° 0 mm 2 m/s 758 mmHg 50%
    13:00 +31°C° 0 mm 2 m/s 758 mmHg 49%
    14:00 +30°C° 0 mm 2 m/s 758 mmHg 52%
    15:00 +30°C° 0 mm 2 m/s 757 mmHg 55%
    16:00 +29°C° 0 mm 2 m/s 757 mmHg 58%
    17:00 +28°C° 0 mm 1 m/s 757 mmHg 65%
    18:00 +26°C° 0 mm 1 m/s 757 mmHg 73%
    19:00 +22°C° 0 mm 0 m/s 757 mmHg 80%
    20:00 +24°C° 0 mm 1 m/s 757 mmHg 81%
    21:00 +23°C° 0 mm 1 m/s 757 mmHg 82%
    22:00 +23°C° 0 mm 1 m/s 757 mmHg 83%
    23:00 +23°C° 0 mm 1 m/s 757 mmHg 83%

    24 Setembro, Segunda-feira

    Tempo Temperatura Precipitação Vento Pressão Humidade
    00:00 +23°C° 0 mm 2 m/s 756 mmHg 83%
    01:00 +23°C° 0 mm 2 m/s 756 mmHg 83%
    02:00 +21°C° 0 mm 2 m/s 755 mmHg 84%
    03:00 +21°C° 0 mm 3 m/s 755 mmHg 85%
    04:00 +21°C° 0 mm 3 m/s 755 mmHg 86%
    05:00 +22°C° 0 mm 3 m/s 754 mmHg 84%
    06:00 +22°C° 0 mm 4 m/s 754 mmHg 82%
    07:00 +23°C° 0 mm 4 m/s 754 mmHg 80%
    08:00 +25°C° 0 mm 4 m/s 754 mmHg 74%
    09:00 +27°C° 0 mm 5 m/s 754 mmHg 67%
    10:00 +28°C° 0 mm 5 m/s 755 mmHg 60%
    11:00 +29°C° 0 mm 5 m/s 755 mmHg 59%
    12:00 +29°C° 0 mm 4 m/s 755 mmHg 58%
    13:00 +30°C° 0 mm 4 m/s 756 mmHg 57%
    14:00 +27°C° 0.4 mm 4 m/s 756 mmHg 61%
    15:00 +23°C° 0.4 mm 4 m/s 756 mmHg 65%
    16:00 +20°C° 0.4 mm 4 m/s 757 mmHg 68%
    17:00 +19°C° 0 mm 5 m/s 757 mmHg 68%
    18:00 +16°C° 0 mm 6 m/s 757 mmHg 67%
    19:00 +15°C° 0 mm 7 m/s 758 mmHg 66%
    20:00 +15°C° 0 mm 7 m/s 758 mmHg 65%
    21:00 +15°C° 0 mm 8 m/s 758 mmHg 64%
    22:00 +15°C° 0 mm 8 m/s 759 mmHg 63%
    23:00 +15°C° 0.4 mm 8 m/s 759 mmHg 65%

    25 Setembro, Terça-feira

    Tempo Temperatura Precipitação Vento Pressão Humidade
    00:00 +13°C° 0.4 mm 8 m/s 760 mmHg 66%
    01:00 +13°C° 0.4 mm 9 m/s 760 mmHg 68%
    02:00 +12°C° 1.8 mm 8 m/s 761 mmHg 71%
    03:00 +12°C° 1.8 mm 8 m/s 761 mmHg 73%
    04:00 +11°C° 1.8 mm 7 m/s 762 mmHg 76%
    05:00 +11°C° 0.1 mm 7 m/s 762 mmHg 73%
    06:00 +11°C° 0.1 mm 7 m/s 762 mmHg 69%
    07:00 +11°C° 0.1 mm 7 m/s 763 mmHg 66%
    08:00 +12°C° 0 mm 7 m/s 763 mmHg 59%
    09:00 +15°C° 0 mm 7 m/s 763 mmHg 51%
    10:00 +16°C° 0 mm 7 m/s 763 mmHg 43%
    11:00 +17°C° 0 mm 7 m/s 763 mmHg 42%
    12:00 +17°C° 0 mm 7 m/s 763 mmHg 40%
    13:00 +18°C° 0 mm 7 m/s 763 mmHg 39%
    14:00 +17°C° 0 mm 7 m/s 763 mmHg 39%
    15:00 +17°C° 0 mm 7 m/s 763 mmHg 39%
    16:00 +16°C° 0 mm 8 m/s 763 mmHg 40%
    17:00 +15°C° 0 mm 7 m/s 763 mmHg 42%
    18:00 +14°C° 0 mm 7 m/s 764 mmHg 44%
    19:00 +11°C° 0 mm 7 m/s 765 mmHg 46%
    20:00 +11°C° 0 mm 7 m/s 765 mmHg 47%
    21:00 +11°C° 0 mm 7 m/s 766 mmHg 48%
    22:00 +10°C° 0 mm 7 m/s 766 mmHg 50%
    23:00 +10°C° 0 mm 6 m/s 766 mmHg 50%

    26 Setembro, Quarta-feira

    Tempo Temperatura Precipitação Vento Pressão Humidade
    00:00 +10°C° 0 mm 6 m/s 766 mmHg 51%
    01:00 +9°C° 0 mm 5 m/s 766 mmHg 52%
    02:00 +9°C° 0 mm 5 m/s 766 mmHg 54%
    03:00 +8°C° 0 mm 5 m/s 767 mmHg 57%
    04:00 +8°C° 0 mm 4 m/s 767 mmHg 59%
    05:00 +8°C° 0 mm 4 m/s 767 mmHg 59%
    06:00 +8°C° 0 mm 4 m/s 767 mmHg 58%
    07:00 +10°C° 0 mm 4 m/s 767 mmHg 57%
    08:00 +12°C° 0 mm 4 m/s 767 mmHg 49%
    09:00 +14°C° 0 mm 4 m/s 767 mmHg 42%
    10:00 +17°C° 0 mm 4 m/s 767 mmHg 34%
    11:00 +19°C° 0 mm 4 m/s 766 mmHg 32%
    12:00 +20°C° 0 mm 4 m/s 766 mmHg 30%
    13:00 +21°C° 0 mm 3 m/s 766 mmHg 28%
    14:00 +21°C° 0 mm 3 m/s 765 mmHg 30%
    15:00 +21°C° 0 mm 3 m/s 765 mmHg 32%
    16:00 +21°C° 0 mm 4 m/s 765 mmHg 33%
    17:00 +19°C° 0 mm 3 m/s 765 mmHg 37%
    18:00 +17°C° 0 mm 3 m/s 765 mmHg 40%
    19:00 +14°C° 0 mm 3 m/s 765 mmHg 44%
    20:00 +14°C° 0 mm 3 m/s 765 mmHg 45%
    21:00 +13°C° 0 mm 3 m/s 765 mmHg 46%
    22:00 +12°C° 0 mm 3 m/s 765 mmHg 47%
    23:00 +12°C° 0 mm 3 m/s 765 mmHg 46%
    Mostrar mais